This demonstration page uses our WeatherBlox Daily Observations layout. Learn more.

38.88101, -77.10428

Hourly Observations for October 9, 2017

Temp ( °F °C ) Dew Point ( °F °C ) Humidity (%) Winds ( mph kmh ) Pressure ( in mb ) Visibility ( mi km ) Precip ( " mm )
12:52 am 00:52 Cloudy 77 25 75 23.9 94 94 SSE 8 13 29.95 1014 10 16.0934 0 0
1:52 am 01:52 Cloudy 76 24.4 74 23.3 94 94 SSE 10 17 29.94 1014 10 16.0934 0 0
2:52 am 02:52 Cloudy 76 24.4 73 22.8 91 91 S 12 19 29.92 1013 10 16.0934 0 0
3:18 am 03:18 Cloudy 76 24.4 73 22.8 91 91 S 13 20 29.91 1013 10 16.0934 0 0
3:52 am 03:52 Cloudy 76 24.4 72 22.2 88 88 S 13 20 29.91 1013 10 16.0934 0 0
4:23 am 04:23 Cloudy 76 24.4 73 22.8 91 91 S 14 22 29.91 1013 10 16.0934 0 0
4:38 am 04:38 Cloudy 76 24.4 72 22.2 88 88 S 14 22 29.91 1013 10 16.0934 0 0
4:46 am 04:46 Cloudy 75 24 72 22 89 89 S 15 24 29.91 1013 10 16.0934 0 0
4:49 am 04:49 Cloudy 75 24 72 22 89 89 S 16 26 29.91 1013 10 16.0934 0 0
4:52 am 04:52 Cloudy 76 24.4 72 22.2 88 88 S 15 24 29.91 1013 10 16.0934 0 0
5:52 am 05:52 Cloudy with Light Rain 75 23.9 73 22.8 94 94 SSE 16 26 29.89 1012 10 16.0934 0.02 0.508
5:59 am 05:59 Cloudy with Light Rain 75 23.9 73 22.8 94 94 SSE 14 22 29.88 1012 10 16.0934 0.01 0.254
6:52 am 06:52 Cloudy with Rain 74 23.3 73 22.8 97 97 S 15 24 29.88 1012 5 8.0467 0.09 2.286
7:32 am 07:32 Cloudy with Heavy Rain 74 23.3 73 22.8 97 97 SSE 17 28 29.85 1011 2.5 4.02335 0.23 5.842
7:41 am 07:41 Cloudy with Rain 74 23.3 73 22.8 97 97 S 17 28 29.88 1012 2.5 4.02335 0.28 7.112
7:52 am 07:52 Cloudy with Rain 74 23.3 73 22.8 97 97 S 21 33 29.87 1011 2.5 4.02335 0.35 8.89
8:03 am 08:03 Cloudy with Light Rain 75 23.9 74 23.3 96 96 S 22 35 29.88 1012 3 4.82802 0.03 0.762
8:48 am 08:48 Cloudy with Light Rain 75 24 73 23 94 94 S 21 33 29.88 1012 9 14.48406 0.04 1.016
8:52 am 08:52 Cloudy with Light Rain 75 23.9 74 23.3 96 96 S 22 35 29.87 1011 7 11.26538 0.05 1.27
9:52 am 09:52 Cloudy with Light Rain 75 23.9 75 23.9 100 100 S 18 30 29.87 1012 7 11.26538 0.04 1.016
10:23 am 10:23 Cloudy with Light Rain 76 24.4 75 23.9 97 97 S 17 28 29.88 1012 9 14.48406 0.01 0.254
10:52 am 10:52 Cloudy 76 24.4 75 23.9 97 97 SSW 15 24 29.87 1012 9 14.48406 0.01 0.254
10:59 am 10:59 Cloudy with Light Rain 76 24.4 75 23.9 97 97 SSW 16 26 29.88 1012 10 16.0934 0 0.0254
11:52 am 11:52 Cloudy 78 25.6 75 23.9 90 90 SSW 14 22 29.87 1012 10 16.0934 0 0.0254
12:52 pm 12:52 Cloudy 80 26.7 76 24.4 87 87 SSW 16 26 29.87 1011 10 16.0934 0 0
1:40 pm 13:40 Partly Cloudy 83 28.3 76 24.4 79 79 SSW 14 22 29.85 1011 10 16.0934 0 0
1:52 pm 13:52 Partly Cloudy 83 28.3 76 24.4 79 79 SSW 16 26 29.86 1011 10 16.0934 0 0
2:52 pm 14:52 Mostly Cloudy 85 29.4 76 24.4 75 75 SSW 16 26 29.85 1011 10 16.0934 0 0
3:52 pm 15:52 Mostly Cloudy 85 29.4 75 23.9 72 72 SSW 13 20 29.85 1011 10 16.0934 0 0
4:52 pm 16:52 Mostly Cloudy 85 29.4 75 23.9 72 72 SSW 12 19 29.87 1011 10 16.0934 0 0
5:52 pm 17:52 Mostly Cloudy 84 28.9 75 23.9 74 74 SSW 12 19 29.88 1012 10 16.0934 0 0
6:52 pm 18:52 Mostly Cloudy 81 27.2 75 23.9 82 82 S 10 17 29.9 1013 10 16.0934 0 0
7:52 pm 19:52 Mostly Cloudy 80 26.7 76 24.4 87 87 SSW 7 11 29.93 1014 10 16.0934 0 0
8:52 pm 20:52 Partly Cloudy 81 27.2 76 24.4 85 85 SSW 8 13 29.95 1014 10 16.0934 0 0
9:52 pm 21:52 Mostly Cloudy 80 26.7 76 24.4 87 87 SW 3 6 29.97 1015 10 16.0934 0 0
10:52 pm 22:52 Mostly Cloudy 80 26.7 75 23.9 85 85 W 6 9 29.99 1016 10 16.0934 0 0
11:52 pm 23:52 Mostly Cloudy 77 25 74 23.3 90 90 WSW 5 7 30 1016 10 16.0934 0 0

Powered by AerisWeather